Time,TemperatureF,DewpointF,PressureIn,WindDirection,WindDirectionDegrees,WindSpeedMPH,WindSpeedGustMPH,Humidity,HourlyPrecipIn,Conditions,Clouds,dailyrainin,SolarRadiationWatts/m^2,SoftwareType,DateUTC
2013-05-08 00:11:00,57.0,34.0,-100.00,NNW,333,6.0,8.0,42,0.00,,,0.00,0.000000,,2013-05-08 07:11:00,
2013-05-08 00:21:00,57.0,34.0,-100.00,NNW,333,6.0,8.0,42,0.00,,,0.00,0.000000,,2013-05-08 07:21:00,
2013-05-08 00:31:00,57.0,34.0,-100.00,NNW,333,6.0,8.0,42,0.00,,,0.00,0.000000,,2013-05-08 07:31:00,
2013-05-08 00:42:00,57.0,34.0,-100.00,NNW,333,6.0,8.0,42,0.00,,,0.00,0.000000,,2013-05-08 07:42:00,
2013-05-08 01:11:00,55.0,38.0,-100.00,NW,319,7.0,9.0,52,0.00,,,0.00,0.000000,,2013-05-08 08:11:00,
2013-05-08 01:21:00,55.0,38.0,-100.00,NW,319,7.0,9.0,52,0.00,,,0.00,0.000000,,2013-05-08 08:21:00,
2013-05-08 01:31:00,55.0,38.0,-100.00,NW,319,7.0,9.0,52,0.00,,,0.00,0.000000,,2013-05-08 08:31:00,
2013-05-08 01:42:00,55.0,38.0,-100.00,NW,319,7.0,9.0,52,0.00,,,0.00,0.000000,,2013-05-08 08:42:00,
2013-05-08 02:11:00,56.0,40.0,-100.00,NNW,329,7.0,9.0,54,0.00,,,0.00,0.000000,,2013-05-08 09:11:00,
2013-05-08 02:21:00,56.0,40.0,-100.00,NNW,329,7.0,9.0,54,0.00,,,0.00,0.000000,,2013-05-08 09:21:00,
2013-05-08 02:32:00,56.0,40.0,-100.00,NNW,329,7.0,9.0,54,0.00,,,0.00,0.000000,,2013-05-08 09:32:00,
2013-05-08 02:42:00,56.0,40.0,-100.00,NNW,329,7.0,9.0,54,0.00,,,0.00,0.000000,,2013-05-08 09:42:00,
2013-05-08 03:12:00,55.0,39.0,-100.00,NNW,332,8.0,12.0,54,0.00,,,0.00,0.000000,,2013-05-08 10:12:00,
2013-05-08 03:22:00,55.0,39.0,-100.00,NNW,332,8.0,12.0,54,0.00,,,0.00,0.000000,,2013-05-08 10:22:00,
2013-05-08 03:33:00,55.0,39.0,-100.00,NNW,332,8.0,12.0,54,0.00,,,0.00,0.000000,,2013-05-08 10:33:00,
2013-05-08 03:42:00,55.0,39.0,-100.00,NNW,332,8.0,12.0,54,0.00,,,0.00,0.000000,,2013-05-08 10:42:00,
2013-05-08 04:11:00,53.0,38.0,-100.00,NW,308,9.0,11.0,57,0.00,,,0.00,0.000000,,2013-05-08 11:11:00,
2013-05-08 04:22:00,53.0,38.0,-100.00,NW,308,9.0,11.0,57,0.00,,,0.00,0.000000,,2013-05-08 11:22:00,
2013-05-08 04:32:00,53.0,38.0,-100.00,NW,308,9.0,11.0,57,0.00,,,0.00,0.000000,,2013-05-08 11:32:00,
2013-05-08 04:41:00,53.0,38.0,-100.00,NW,308,9.0,11.0,57,0.00,,,0.00,0.000000,,2013-05-08 11:41:00,
2013-05-08 05:11:00,55.0,40.0,-100.00,North,8,5.0,12.0,56,0.00,,,0.00,0.000000,,2013-05-08 12:11:00,
2013-05-08 05:21:00,55.0,40.0,-100.00,North,8,5.0,12.0,56,0.00,,,0.00,0.000000,,2013-05-08 12:21:00,
2013-05-08 05:31:00,55.0,40.0,-100.00,North,8,5.0,12.0,56,0.00,,,0.00,0.000000,,2013-05-08 12:31:00,
2013-05-08 05:41:00,55.0,40.0,-100.00,North,8,5.0,12.0,56,0.00,,,0.00,0.000000,,2013-05-08 12:41:00,
2013-05-08 06:11:00,52.0,38.0,-100.00,NW,304,6.0,9.0,59,0.00,,,0.00,0.000000,,2013-05-08 13:11:00,
2013-05-08 06:21:00,52.0,38.0,-100.00,NW,304,6.0,9.0,59,0.00,,,0.00,0.000000,,2013-05-08 13:21:00,
2013-05-08 06:32:00,52.0,38.0,-100.00,NW,304,6.0,9.0,59,0.00,,,0.00,0.000000,,2013-05-08 13:32:00,
2013-05-08 06:42:00,52.0,38.0,-100.00,NW,304,6.0,9.0,59,0.00,,,0.00,0.000000,,2013-05-08 13:42:00,
2013-05-08 07:11:00,55.0,40.0,-100.00,NNW,333,3.0,7.0,56,0.00,,,0.00,2.000000,,2013-05-08 14:11:00,
2013-05-08 07:21:00,55.0,40.0,-100.00,NNW,333,3.0,7.0,56,0.00,,,0.00,2.000000,,2013-05-08 14:21:00,
2013-05-08 07:31:00,55.0,40.0,-100.00,NNW,333,3.0,7.0,56,0.00,,,0.00,2.000000,,2013-05-08 14:31:00,
2013-05-08 07:42:00,55.0,40.0,-100.00,NNW,333,3.0,7.0,56,0.00,,,0.00,2.000000,,2013-05-08 14:42:00,
2013-05-08 08:11:00,65.0,44.0,-100.00,NW,322,2.0,5.0,46,0.00,,,0.00,122.000000,,2013-05-08 15:11:00,
2013-05-08 08:21:00,65.0,44.0,-100.00,NW,322,2.0,5.0,46,0.00,,,0.00,122.000000,,2013-05-08 15:21:00,
2013-05-08 08:33:00,65.0,44.0,-100.00,NW,322,2.0,5.0,46,0.00,,,0.00,122.000000,,2013-05-08 15:33:00,
2013-05-08 08:42:00,65.0,44.0,-100.00,NW,322,2.0,5.0,46,0.00,,,0.00,122.000000,,2013-05-08 15:42:00,
2013-05-08 09:12:00,73.0,44.0,-100.00,North,3,4.0,8.0,35,0.00,,,-99.99,308.000000,,2013-05-08 16:12:00,
2013-05-08 09:23:00,73.0,44.0,-100.00,North,3,4.0,8.0,35,0.00,,,-99.99,308.000000,,2013-05-08 16:23:00,
2013-05-08 09:42:00,73.0,44.0,-100.00,North,3,4.0,8.0,35,0.00,,,-99.99,308.000000,,2013-05-08 16:42:00,
2013-05-08 10:12:00,75.0,41.0,-100.00,NNE,28,7.0,13.0,29,0.00,,,-99.99,483.000000,,2013-05-08 17:12:00,
2013-05-08 10:22:00,75.0,41.0,-100.00,NNE,28,7.0,13.0,29,0.00,,,-99.99,483.000000,,2013-05-08 17:22:00,
2013-05-08 10:31:00,75.0,41.0,-100.00,NNE,28,7.0,13.0,29,0.00,,,-99.99,483.000000,,2013-05-08 17:31:00,
2013-05-08 10:41:00,75.0,41.0,-100.00,NNE,28,7.0,13.0,29,0.00,,,-99.99,483.000000,,2013-05-08 17:41:00,
2013-05-08 11:11:00,77.0,38.0,-100.00,NNE,18,7.0,13.0,25,0.00,,,-99.99,640.000000,,2013-05-08 18:11:00,
2013-05-08 11:21:00,77.0,38.0,-100.00,NNE,18,7.0,13.0,25,0.00,,,-99.99,640.000000,,2013-05-08 18:21:00,
2013-05-08 11:31:00,77.0,38.0,-100.00,NNE,18,7.0,13.0,25,0.00,,,-99.99,640.000000,,2013-05-08 18:31:00,
2013-05-08 11:42:00,77.0,38.0,-100.00,NNE,18,7.0,13.0,25,0.00,,,-99.99,640.000000,,2013-05-08 18:42:00,
2013-05-08 12:11:00,79.0,42.0,-100.00,ESE,103,5.0,13.0,27,0.00,,,0.00,750.000000,,2013-05-08 19:11:00,
2013-05-08 12:21:00,79.0,42.0,-100.00,ESE,103,5.0,13.0,27,0.00,,,0.00,750.000000,,2013-05-08 19:21:00,
2013-05-08 12:32:00,79.0,42.0,-100.00,ESE,103,5.0,13.0,27,0.00,,,0.00,750.000000,,2013-05-08 19:32:00,
2013-05-08 12:41:00,79.0,42.0,-100.00,ESE,103,5.0,13.0,27,0.00,,,0.00,750.000000,,2013-05-08 19:41:00,
2013-05-08 13:11:00,82.0,42.0,-100.00,SSE,147,4.0,12.0,24,0.00,,,0.00,802.000000,,2013-05-08 20:11:00,
2013-05-08 13:22:00,82.0,42.0,-100.00,SSE,147,4.0,12.0,24,0.00,,,0.00,802.000000,,2013-05-08 20:22:00,
2013-05-08 13:32:00,82.0,42.0,-100.00,SSE,147,4.0,12.0,24,0.00,,,0.00,802.000000,,2013-05-08 20:32:00,
2013-05-08 13:41:00,82.0,42.0,-100.00,SSE,147,4.0,12.0,24,0.00,,,0.00,802.000000,,2013-05-08 20:41:00,
2013-05-08 14:11:00,84.0,41.0,-100.00,SSW,209,5.0,10.0,22,0.00,,,0.00,784.000000,,2013-05-08 21:11:00,
2013-05-08 14:21:00,84.0,41.0,-100.00,SSW,209,5.0,10.0,22,0.00,,,0.00,784.000000,,2013-05-08 21:21:00,
2013-05-08 14:32:00,84.0,41.0,-100.00,SSW,209,5.0,10.0,22,0.00,,,0.00,784.000000,,2013-05-08 21:32:00,
2013-05-08 14:43:00,84.0,41.0,-100.00,SSW,209,5.0,10.0,22,0.00,,,0.00,784.000000,,2013-05-08 21:43:00,
2013-05-08 15:12:00,87.0,38.0,-100.00,SW,234,4.0,13.0,18,0.00,,,0.00,725.000000,,2013-05-08 22:12:00,
2013-05-08 15:22:00,87.0,38.0,-100.00,SW,234,4.0,13.0,18,0.00,,,0.00,725.000000,,2013-05-08 22:22:00,
2013-05-08 15:33:00,87.0,38.0,-100.00,SW,234,4.0,13.0,18,0.00,,,0.00,725.000000,,2013-05-08 22:33:00,
2013-05-08 15:42:00,87.0,38.0,-100.00,SW,234,4.0,13.0,18,0.00,,,0.00,725.000000,,2013-05-08 22:42:00,
2013-05-08 16:11:00,88.0,42.0,-100.00,SW,235,5.0,15.0,20,0.00,,,0.00,604.000000,,2013-05-08 23:11:00,
2013-05-08 16:22:00,88.0,42.0,-100.00,SW,235,5.0,15.0,20,0.00,,,0.00,604.000000,,2013-05-08 23:22:00,
2013-05-08 16:32:00,88.0,42.0,-100.00,SW,235,5.0,15.0,20,0.00,,,0.00,604.000000,,2013-05-08 23:32:00,
2013-05-08 16:42:00,88.0,42.0,-100.00,SW,235,5.0,15.0,20,0.00,,,0.00,604.000000,,2013-05-08 23:42:00,
2013-05-08 17:11:00,84.0,41.0,-100.00,SSW,192,2.0,14.0,22,0.00,,,0.00,366.000000,,2013-05-09 00:11:00,
2013-05-08 17:21:00,84.0,41.0,-100.00,SSW,192,2.0,14.0,22,0.00,,,0.00,366.000000,,2013-05-09 00:21:00,
2013-05-08 17:32:00,84.0,41.0,-100.00,SSW,192,2.0,14.0,22,0.00,,,0.00,366.000000,,2013-05-09 00:32:00,
2013-05-08 17:42:00,84.0,41.0,-100.00,SSW,192,2.0,14.0,22,0.00,,,0.00,366.000000,,2013-05-09 00:42:00,
2013-05-08 18:11:00,88.0,38.0,-100.00,NW,314,2.0,12.0,17,0.00,,,0.00,279.000000,,2013-05-09 01:11:00,
2013-05-08 18:22:00,88.0,38.0,-100.00,NW,314,2.0,12.0,17,0.00,,,0.00,279.000000,,2013-05-09 01:22:00,
2013-05-08 18:32:00,88.0,38.0,-100.00,NW,314,2.0,12.0,17,0.00,,,0.00,279.000000,,2013-05-09 01:32:00,
2013-05-08 18:42:00,88.0,38.0,-100.00,NW,314,2.0,12.0,17,0.00,,,0.00,279.000000,,2013-05-09 01:42:00,
2013-05-08 19:11:00,85.0,42.0,-100.00,WNW,298,5.0,14.0,22,0.00,,,0.00,30.000000,,2013-05-09 02:11:00,
2013-05-08 19:21:00,85.0,42.0,-100.00,WNW,298,5.0,14.0,22,0.00,,,0.00,30.000000,,2013-05-09 02:21:00,
2013-05-08 19:32:00,85.0,42.0,-100.00,WNW,298,5.0,14.0,22,0.00,,,0.00,30.000000,,2013-05-09 02:32:00,
2013-05-08 19:41:00,85.0,42.0,-100.00,WNW,298,5.0,14.0,22,0.00,,,0.00,30.000000,,2013-05-09 02:41:00,
2013-05-08 20:11:00,76.0,41.0,-100.00,WNW,302,9.0,15.0,28,0.00,,,0.00,0.000000,,2013-05-09 03:11:00,
2013-05-08 20:21:00,76.0,41.0,-100.00,WNW,302,9.0,15.0,28,0.00,,,0.00,0.000000,,2013-05-09 03:21:00,
2013-05-08 20:33:00,76.0,41.0,-100.00,WNW,302,9.0,15.0,28,0.00,,,0.00,0.000000,,2013-05-09 03:33:00,
2013-05-08 20:43:00,76.0,41.0,-100.00,WNW,302,9.0,15.0,28,0.00,,,0.00,0.000000,,2013-05-09 03:43:00,
2013-05-08 21:12:00,67.0,41.0,-100.00,NW,309,8.0,10.0,39,0.00,,,0.00,0.000000,,2013-05-09 04:12:00,
2013-05-08 21:23:00,67.0,41.0,-100.00,NW,309,8.0,10.0,39,0.00,,,0.00,0.000000,,2013-05-09 04:23:00,
2013-05-08 21:32:00,67.0,41.0,-100.00,NW,309,8.0,10.0,39,0.00,,,0.00,0.000000,,2013-05-09 04:32:00,
2013-05-08 21:42:00,67.0,41.0,-100.00,NW,309,8.0,10.0,39,0.00,,,0.00,0.000000,,2013-05-09 04:42:00,
2013-05-08 22:12:00,60.0,39.0,-100.00,NNW,328,7.0,12.0,46,0.00,,,0.00,0.000000,,2013-05-09 05:12:00,
2013-05-08 22:22:00,60.0,39.0,-100.00,NNW,328,7.0,12.0,46,0.00,,,0.00,0.000000,,2013-05-09 05:22:00,
2013-05-08 22:32:00,60.0,39.0,-100.00,NNW,328,7.0,12.0,46,0.00,,,0.00,0.000000,,2013-05-09 05:32:00,
2013-05-08 22:42:00,60.0,39.0,-100.00,NNW,328,7.0,12.0,46,0.00,,,0.00,0.000000,,2013-05-09 05:42:00,
2013-05-08 23:11:00,59.0,37.0,-100.00,NW,324,5.0,10.0,43,0.00,,,0.00,0.000000,,2013-05-09 06:11:00,
2013-05-08 23:21:00,59.0,37.0,-100.00,NW,324,5.0,10.0,43,0.00,,,0.00,0.000000,,2013-05-09 06:21:00,
2013-05-08 23:32:00,59.0,37.0,-100.00,NW,324,5.0,10.0,43,0.00,,,0.00,0.000000,,2013-05-09 06:32:00,
2013-05-08 23:42:00,59.0,37.0,-100.00,NW,324,5.0,10.0,43,0.00,,,0.00,0.000000,,2013-05-09 06:42:00,